TimeEDT,TemperatureF,Dew PointF,Humidity,Sea Level PressureIn,VisibilityMPH,Wind Direction,Wind SpeedMPH,Gust SpeedMPH,PrecipitationIn,Events,Conditions,WindDirDegrees,DateUTC
12:51 AM,55.9,42.1,60,30.23,10.0,South,5.8,-,N/A,,Scattered Clouds,180,2013-04-29 04:51:00
1:51 AM,55.9,43.0,62,30.22,10.0,South,4.6,-,N/A,,Overcast,180,2013-04-29 05:51:00
2:51 AM,55.0,45.0,69,30.21,10.0,South,4.6,-,0.00,,Light Drizzle,190,2013-04-29 06:51:00
3:51 AM,55.9,46.0,69,30.20,10.0,South,5.8,-,0.00,,Light Drizzle,180,2013-04-29 07:51:00
4:51 AM,55.9,46.0,69,30.20,10.0,South,8.1,-,0.00,,Light Drizzle,170,2013-04-29 08:51:00
5:51 AM,55.0,46.9,74,30.20,10.0,SSE,6.9,-,0.00,,Light Drizzle,160,2013-04-29 09:51:00
6:51 AM,54.0,46.9,77,30.22,8.0,Calm,Calm,-,0.01,,Light Drizzle,0,2013-04-29 10:51:00
7:51 AM,54.0,48.0,80,30.23,10.0,SE,6.9,-,0.00,,Light Drizzle,140,2013-04-29 11:51:00
8:51 AM,54.0,46.9,77,30.23,10.0,South,10.4,-,0.01,Rain,Light Rain,180,2013-04-29 12:51:00
9:51 AM,54.0,46.9,77,30.23,10.0,South,10.4,-,0.00,Rain,Light Rain,170,2013-04-29 13:51:00
10:51 AM,54.0,46.0,75,30.23,10.0,SSE,12.7,18.4,0.00,Rain,Light Rain,160,2013-04-29 14:51:00
11:51 AM,54.0,45.0,72,30.22,10.0,South,9.2,-,0.01,Rain,Light Rain,170,2013-04-29 15:51:00
12:51 PM,55.0,48.0,77,30.21,10.0,SSE,6.9,-,0.01,Rain,Light Rain,150,2013-04-29 16:51:00
1:51 PM,54.0,48.0,80,30.21,10.0,South,6.9,-,0.02,Rain,Light Rain,170,2013-04-29 17:51:00
2:51 PM,55.0,48.0,77,30.20,10.0,SE,9.2,-,0.01,Rain,Light Rain,140,2013-04-29 18:51:00
3:51 PM,55.0,46.9,74,30.20,10.0,SE,9.2,-,0.00,Rain,Light Rain,140,2013-04-29 19:51:00
4:51 PM,55.9,46.9,72,30.18,10.0,East,5.8,-,0.00,,Overcast,100,2013-04-29 20:51:00
5:51 PM,57.0,46.9,69,30.19,10.0,SE,8.1,-,N/A,,Overcast,130,2013-04-29 21:51:00
6:51 PM,57.0,44.1,62,30.19,10.0,SE,9.2,-,N/A,,Overcast,140,2013-04-29 22:51:00
7:51 PM,57.0,44.1,62,30.19,10.0,SE,9.2,-,N/A,,Overcast,140,2013-04-29 23:51:00
8:51 PM,55.9,45.0,67,30.21,10.0,South,3.5,-,N/A,,Overcast,170,2013-04-30 00:51:00
9:51 PM,55.9,46.0,69,30.22,10.0,SE,6.9,-,N/A,,Overcast,140,2013-04-30 01:51:00
10:03 PM,55.4,46.4,72,30.22,10.0,SSE,11.5,17.3,N/A,,Overcast,160,2013-04-30 02:03:00
10:51 PM,55.0,46.9,74,30.22,10.0,SE,3.5,-,N/A,,Overcast,130,2013-04-30 02:51:00
11:37 PM,55.4,46.4,72,30.22,10.0,SE,5.8,-,N/A,,Overcast,130,2013-04-30 03:37:00
11:51 PM,55.0,46.0,72,30.22,10.0,SE,5.8,-,N/A,,Overcast,130,2013-04-30 03:51:00